Home   Weather   Manaus   Past weeks

Flag for Brazil Past Weather in Manaus, Amazonas, Brazil — Yesterday and Last 2 Weeks

Now
79 °F

Clear.


Feels Like: 82 °F
Forecast: 73 / 92 °F
Wind: 6 mph from Northeast

Location: Manaus Aeroporto

Current Time: Jul 26, 2017 at 4:50:44 am

Latest Report: Jul 26, 2017 at 4:00 am


Visibility: 10 mi

Pressure: 29.92 "Hg

Humidity: 79%

Dew Point: 72 °F

Location of ManausLocation

Past Weather in Manaus — Graph

°F

Manaus Temperature Yesterday

Maximum temperature yesterday: 88 °F (at 11:00 am)
Minimum temperature yesterday: 77 °F (at 6:00 am)
Average temperature yesterday: 83 °F

High & Low Weather Summary for the Past Weeks

 TemperatureHumidityPressure
High90 °F (Jul 11, 1:00 pm)94% (Jul 14, 1:00 pm)30.04 "Hg (Jul 14, 1:00 pm)
Low72 °F (Jul 19, 7:00 am)18% (Jul 23, 2:00 pm)29.83 "Hg (Jul 15, 4:00 pm)
Average81 °F72%29.94 "Hg
* Reported Jul 11 3:00 am — Jul 26 3:00 am, Manaus. Weather by CustomWeather, © 2017

Note: Actual official high and low records may vary slightly from our data, if they occured in-between our weather recording intervals... More about our weather records

Advertising

Manaus Weather History for the Previous 24 Hours

Scroll right to see more
 ConditionsComfort  
Time TempWeatherWind HumidityBarometerVisibility
3:00 am
Wed, Jul 26
79 °FClear.2 mph79%29.89 "Hg10 mi
2:00 am81 °FClear.3 mph79%29.92 "Hg10 mi
1:00 am81 °FClear.3 mph79%29.92 "Hg10 mi
12:00 am81 °FClear.3 mph79%29.92 "Hg10 mi
11:00 pm
Tue, Jul 25
81 °FClear.2 mph79%29.92 "Hg10 mi
10:00 pm81 °FClear.2 mph79%29.92 "Hg10 mi
9:00 pm81 °FClear.2 mph84%29.92 "Hg10 mi
8:00 pm82 °FClear.2 mph74%29.89 "Hg10 mi
7:00 pm82 °FPassing clouds.2 mph70%29.89 "HgN/A
6:00 pm84 °FScattered clouds.2 mph70%29.86 "HgN/A
5:00 pm86 °FPartly sunny.3 mph66%29.86 "HgN/A
4:00 pm88 °FScattered clouds.5 mph62%29.86 "HgN/A
3:00 pm88 °FScattered clouds.6 mph62%29.89 "HgN/A
2:00 pm88 °FScattered clouds.7 mph59%29.92 "HgN/A
1:00 pm88 °FScattered clouds.7 mph62%29.95 "HgN/A
12:00 pm88 °FScattered clouds.6 mph66%29.98 "HgN/A
11:00 am88 °FPassing clouds.6 mph66%30.01 "HgN/A
10:00 am86 °FPassing clouds.5 mph70%30.01 "HgN/A
9:00 am84 °FPassing clouds.3 mph79%30.01 "HgN/A
8:00 am82 °FPassing clouds.1 mph79%30.01 "HgN/A
7:00 am79 °FPassing clouds.2 mph79%29.98 "HgN/A
6:00 am77 °FPassing clouds.3 mph83%29.98 "HgN/A
5:00 am79 °FClear.5 mph79%29.95 "Hg10 mi
4:00 am79 °FClear.3 mph74%29.92 "Hg10 mi
Weather by CustomWeather, © 2017

See weather overviewHow to use our weather pages